Retour au catalogue

STARLINK-33632

ActifCommunicationsVLEO
NORAD 63577·PAYLOAD·🇺🇸 United States

Lancé Apr 14, 2025 depuis Cape Canaveral Space Force Station

Loading…

Prochains Passages (prochaines 24 heures)

TLE

FraisSource: CelesTrak SupGP

Époque: Sep 15, 2026, 03:28 UTC

1 63577C 25076J   26258.14493056  .00047393  00000+0  17166-2 0  2589
2 63577  43.0009 332.0406 0001489 259.3076  34.8364 15.27553386    12

Suivez STARLINK-33632 en temps réel avec AllMySat

Download on the App Store